SCP
0 0 0 0 0 0 0 0 0 0 0 0 0 0 0 0 0 0 0 0 0 0 0 0 0 0 0 0 0 0 0 0 0 0 0 0 0 0 0 0 0 0 0 0 0
0 0 0 0 0 0 0 0 0 0 0 0 0 0 0 0 0 0 0 0 0 0 0 0 0 0 0 0 0 0 0 0 0 0 0 0 0 0 0 0 0 0 0 0 0
0 0 0 0 -0 0 0 0 0 0 0 0 0 0 0 0 0 0 0 0 0 0 0 0 0 0 0 0 0 0 0 0 0 0 0 0 0 0 0 0 0 0 0 0 0
-0 0 -0 -0 -0 -0 -0 0 0 0 0 0 0 0 0 0 0 0 0 0 0 0 0 0 0 0 0 0 0 0 0 0 0 0 0 0 0 0 0 0 0 0 0 0 0
0 -0 -0 0 0 -0 -0 -0 0 0 0 0 0 0 0 0 0 0 0 0 0 0 0 0 0 0 0 0 0 0 0 0 0 0 0 0 0 0 0 0 0 0 0 0 0
0 -0 -0 -0 -0 -0 -0 -0 0 0 0 0 0 0 0 0 0 0 0 0 0 0 0 0 0 0 0 0 0 0 0 0 0 0 0 0 0 0 0 0 0 0 0 0 0
-0 -0 -0 -0 -0 -0 -0 -0 0 0 0 0 0 0 0 0 0 0 0 -0 -0 -0 0 0 0 0 0 0 0 0 -0 -0 -0 0 0 0 0 0 0 0 0 0 0 0 0
0 -0 -0 -0 -0 -0 -0 0 0 0 0 0 0 0 0 0 0 0 0 0 0 -0 -0 0 0 0 0 0 0 0 -0 -0 0 0 0 0 0 0 0 0 0 0 0 0 0
-0 -0 -0 -0 -0 -0 -0 -0 0 -0 0 0 0 0 0 0 0 0 0 0 0 0 -0 -0 0 0 0 0 0 0 -0 0 -0 -0 0 0 -0 -0 0 -0 0 0 0 0 0
-0 -0 -0 -0 -0 -0 -0 0 -0 0 -0 0 0 0 0 0 0 0 0 0 -0 0 0 0 0 0 0 0 0 0 0 0 -0 0 0 0 0 0 0 0 0 0 0 0 0
-0 -0 -0 -0 -0 -0 0 0 0 -0 0 -0 -0 0 0 0 0 0 0 0 0 0 0 0 0 0 0 0 0 0 0 0 0 0 0 0 0 0 0 0 0 0 0 0 0
-0 -0 -0 -0 -0 -0 -0 -0 -0 -0 -0 -0 -0 -0 0 0 0 0 0 0 0 -0 0 0 0 0 0 0 0 0 0 0 -0 0 0 -0 -0 0 0 0 0 0 0 0 0
-0 -0 0 0 0 -0 -0 -0 -0 0 0 -0 -0 0 0 -0 -0 0 -0 -0 0 -0 0 -0 0 0 0 0 0 0 0 -0 -0 0 0 -0 -0 -0 -0 0 0 0 0 0 0
-0 -0 0 -0 0 0 0 -0 -0 0 0 0 -0 -0 0 0 0 0 0 0 0 0 -0 0 0 0 0 0 0 0 -0 -0 -0 -0 -0 0 -0 -0 -0 -0 -0 0 0 0 0
-0 0 0 0 0 0 0 -0 0 0 0 0 0 0 -0 0 0 0 0 0 0 0 0 -0 0 0 0 0 0 -0 0 0 0 0 -0 -0 0 -0 -0 -0 -0 0 0 0 0
-0 -0 0 0 0 0 0 0 0 0 -0 0 0 0 0 0 0 0 0 0 0 0 0 0 0 0 0 0 0 0 0 0 -0 -0 0 0 0 -0 -0 -0 -0 0 0 0 0
-0 0 0 0 0 0 0 0 0 0 0 0 0 0 0 0 0 0 0 0 0 0 0 0 0 0 0 0 0 0 0 -0 -0 -0 -0 0 0 0 0 0 -0 0 0 0 0
0 0 0 0 0 0 0 0 0 0 0 0 0 0 0 0 0 0 0 0 0 0 0 0 0 0 0 0 0 0 0 0 0 0 0 -0 0 0 0 0 0 0 0 0 0
0 0 0 0 0 0 0 0 0 0 0 0 0 0 0 0 0 0 0 0 0 0 0 0 0 0 0 0 0 0 0 0 0 0 0 -0 0 0 0 0 0 0 0 0 0
0 0 0 0 0 0 0 0 0 0 0 0 0 0 0 0 0 0 0 0 0 0 0 0 0 0 0 0 0 0 0 0 0 0 0 0 0 0 0 0 0 0 0 0 0
0 0 0 0 0 0 0 0 0 0 0 0 0 0 0 0 0 0 0 0 0 0 0 0 0 0 0 0 0 0 0 0 0 0 0 0 0 0 0 0 -0 0 0 0 0
0 0 0 0 0 0 0 0 0 0 0 0 0 0 0 0 0 0 0 0 0 0 0 0 0 0 0 0 0 0 0 0 0 0 0 0 0 0 -0 0 0 -0 0 0 0
0 0 0 0 0 0 0 0 0 0 0 0 0 0 0 0 0 0 0 0 0 0 0 0 0 0 0 0 0 0 0 0 0 0 0 0 0 0 -0 -0 -0 -0 0 -0 0
0 0 0 0 0 0 0 0 0 0 0 0 0 0 0 0 0 0 0 0 0 0 0 0 0 0 0 0 0 0 0 0 0 0 0 0 0 0 0 0 -0 0 -0 0 0
0 0 0 0 0 0 0 0 0 0 0 0 0 0 0 0 0 0 0 0 0 0 0 0 0 0 0 0 0 0 0 0 0 0 0 0 0 0 0 0 -0 -0 -0 -0 0
0 0 0 0 0 0 0 0 0 0 0 0 0 0 0 0 0 0 0 0 0 0 0 0 0 0 0 0 0 0 0 0 0 0 0 0 0 0 0 -0 -0 -0 -0 -0 -0
0 0 0 0 0 0 0 0 0 0 0 0 0 0 0 0 0 0 0 0 0 0 0 0 0 0 0 0 0 0 0 0 0 0 0 0 0 0 0 -0 -0 -0 -0 -0 -0
Wind_Speed_500mb
39 37 36 34 33 32 32 34 33 32 31 32 28 28 27 24 23 26 14 11 10 21 41 28 18 35 21 10 12 5 3 8 9 9 11 15 9 4 7 11 18 22 8 12 46
41 42 42 41 39 37 34 33 34 32 29 26 28 29 29 26 28 30 21 16 12 15 19 15 12 16 14 9 9 8 6 14 12 7 9 15 7 15 6 6 13 18 19 16 49
44 44 43 44 43 42 41 38 34 33 34 29 24 26 27 25 11 26 29 25 18 13 14 18 12 14 17 16 15 11 12 8 12 19 17 9 13 8 8 9 15 26 35 30 54
49 50 50 48 48 49 50 49 42 32 27 29 20 18 19 18 9 31 31 25 22 19 14 8 8 7 7 10 14 7 27 23 13 10 11 8 14 13 12 16 8 15 27 43 59
52 53 54 53 56 56 56 54 46 32 27 26 21 14 13 21 25 37 32 25 20 18 15 9 9 7 7 8 12 8 9 27 28 30 26 28 26 16 34 40 31 30 25 49 60
50 52 52 51 56 59 62 58 37 27 31 27 19 21 23 24 34 38 34 30 23 18 15 11 7 12 13 8 4 18 24 31 22 25 21 10 12 5 32 44 41 35 29 49 66
50 50 49 48 51 54 56 44 35 30 33 21 20 42 62 39 38 32 32 30 29 22 18 11 13 9 15 11 19 18 14 15 13 18 13 8 16 17 73 61 58 38 43 48 68
54 55 52 49 50 51 50 39 42 44 35 14 33 33 22 48 41 44 32 23 19 19 18 13 13 10 6 20 16 9 5 8 8 3 9 15 34 13 37 31 44 57 51 52 61
51 53 55 53 53 51 38 49 41 26 59 40 29 30 23 45 60 60 51 39 22 19 13 13 8 6 5 5 7 7 10 12 15 2 6 11 9 9 14 13 35 51 49 57 63
47 49 52 52 50 50 44 6 45 37 8 23 45 14 54 45 47 50 43 33 26 26 7 12 8 6 8 11 7 12 12 11 9 15 15 25 25 27 51 35 32 38 41 43 56
44 45 48 47 47 51 49 11 2 16 62 35 22 18 39 39 32 56 56 17 26 31 12 13 9 10 9 7 11 14 16 25 23 25 27 35 47 31 40 43 32 50 68 74 62
39 40 42 43 37 50 44 43 25 7 10 30 24 41 43 31 22 71 61 29 22 14 22 13 10 7 15 11 7 7 14 14 16 10 13 21 50 34 33 44 51 50 60 75 75
41 39 37 39 26 47 47 35 15 6 3 19 24 41 46 21 25 68 62 26 11 16 13 1 8 19 11 18 23 12 9 7 14 20 15 17 41 19 16 43 46 57 72 77 82
39 38 38 39 22 45 40 24 11 7 8 26 25 28 43 12 9 50 59 14 15 12 13 6 17 16 24 17 17 12 7 6 9 9 6 10 24 7 2 17 10 32 49 61 65
39 36 36 35 27 46 38 17 7 4 9 22 14 19 20 25 29 52 54 18 12 12 8 10 16 23 15 18 22 11 18 12 8 11 4 10 9 4 12 28 24 34 59 58 56
40 36 34 35 34 41 34 9 6 12 5 11 16 23 16 22 20 35 37 18 20 10 12 10 18 8 9 24 9 22 22 30 9 10 16 18 16 25 10 12 30 48 67 68 70
39 34 31 35 41 40 30 3 10 12 11 16 10 14 8 17 16 22 12 39 17 16 16 17 10 10 39 26 18 45 18 9 7 5 10 6 8 24 24 23 23 30 57 67 73
36 28 25 33 32 31 22 10 15 8 5 5 9 9 8 20 10 19 7 10 19 6 4 8 18 14 29 9 18 21 6 5 15 9 22 11 9 5 8 26 40 47 54 70 92
32 20 30 33 32 25 7 12 11 7 5 11 7 10 9 9 9 13 11 5 9 16 6 11 10 20 28 20 2 17 8 24 15 24 19 9 10 11 29 38 58 63 66 77 81
33 12 40 36 26 17 14 8 4 3 7 4 5 7 9 13 12 11 10 5 10 13 7 7 12 13 17 19 17 18 19 11 9 11 9 9 8 5 36 41 38 43 61 70 84
26 7 39 33 15 21 8 8 2 3 6 4 1 4 5 5 4 5 4 5 8 9 19 4 5 12 9 11 26 12 10 11 9 9 9 11 6 24 35 34 34 39 56 60 71
17 8 40 23 17 11 5 8 2 4 5 5 5 3 2 6 3 4 4 5 24 7 7 5 7 8 21 15 8 17 6 9 6 15 14 11 11 26 42 47 52 54 62 54 66
10 14 26 19 7 5 6 1 1 3 4 3 2 4 2 1 5 5 5 7 17 10 3 6 5 8 21 11 8 4 20 14 16 16 8 12 13 43 39 41 59 60 66 67 71
10 7 18 28 18 8 4 4 7 4 4 4 2 3 3 3 6 7 5 11 23 30 23 17 4 13 12 20 21 26 25 26 18 7 22 30 44 41 24 26 40 49 57 66 68
14 7 8 5 11 6 2 6 1 5 3 4 4 7 7 3 6 7 7 13 17 30 9 7 8 8 19 28 32 33 39 36 30 28 26 39 35 32 23 21 38 29 40 50 68
6 2 2 2 2 3 5 5 9 7 4 6 9 9 9 12 15 15 18 7 11 8 6 7 13 5 23 26 25 29 37 33 37 38 39 44 40 1 29 38 39 43 47 43 50
8 12 5 4 5 7 6 8 9 7 11 22 15 6 14 28 36 43 42 40 36 20 17 9 5 2 12 6 10 12 16 11 15 8 3 17 16 11 17 28 33 53 39 46 56
Wind_Direction_500mb
19 16 13 6 358 352 344 336 329 323 319 319 321 320 320 324 333 325 329 316 270 248 256 276 272 281 296 254 222 193 34 244 250 175 253 330 344 277 245 197 183 199 229 213 188
18 14 11 9 4 356 350 344 339 334 322 308 318 319 319 326 349 51 27 358 312 273 273 263 255 245 261 253 205 176 184 233 213 208 255 301 299 317 300 217 215 207 217 222 185
14 14 13 10 7 360 351 347 341 335 333 326 306 318 323 333 52 17 9 356 343 318 284 272 246 245 218 219 203 189 224 215 263 270 276 275 299 295 304 261 228 216 208 207 188
19 16 15 14 10 4 358 350 344 340 343 337 330 336 342 354 69 360 0 358 351 341 333 310 270 238 257 223 220 214 253 250 269 284 305 279 305 299 234 251 312 288 230 212 197
19 16 12 12 8 2 0 353 347 347 356 352 354 10 48 71 18 5 357 343 343 340 345 331 275 256 270 315 319 246 299 274 273 277 281 275 265 257 277 271 278 280 237 219 212
18 13 9 7 6 359 358 355 356 5 18 7 10 50 74 68 16 4 2 1 352 346 357 336 313 313 287 278 265 320 295 287 289 278 269 259 268 170 271 275 272 253 250 224 218
17 13 10 6 5 2 3 7 17 8 359 43 44 91 56 17 13 2 12 12 4 360 360 339 318 313 327 314 326 295 307 304 247 241 237 226 277 220 261 260 265 264 238 229 221
12 11 11 6 7 8 14 19 9 68 54 75 84 78 74 26 34 23 13 18 15 20 7 357 344 304 281 305 321 328 280 331 300 110 284 186 262 284 290 250 252 258 249 234 228
8 7 7 4 3 8 27 47 43 76 56 68 81 76 36 27 28 25 16 14 17 13 41 36 42 36 349 329 332 337 263 272 319 273 308 204 283 278 342 282 258 266 266 256 242
6 4 5 3 1 5 12 26 52 50 50 49 44 63 9 346 17 16 20 11 20 23 26 33 64 72 37 25 301 331 321 319 301 329 343 303 279 282 287 287 269 284 284 271 258
5 3 3 5 1 4 9 47 54 26 51 62 41 49 354 12 24 17 13 23 20 31 13 357 45 40 335 266 249 289 282 287 292 285 285 276 279 275 282 283 275 271 275 275 273
3 4 1 4 4 4 10 54 56 41 357 38 22 20 14 18 11 17 19 30 23 22 353 8 73 12 322 292 274 270 287 289 276 321 300 296 284 272 275 271 266 265 271 277 279
1 2 3 3 359 6 21 40 44 43 26 20 25 13 5 5 34 9 13 359 29 16 8 37 301 339 359 336 329 287 237 278 289 329 261 283 281 267 239 251 263 257 262 270 270
0 358 1 3 7 2 17 18 33 105 69 346 352 9 355 8 59 13 8 2 359 6 340 315 318 3 345 334 357 322 284 272 276 357 277 33 291 113 237 264 301 286 278 277 278
360 359 359 8 9 10 354 9 77 108 56 328 349 347 8 42 353 2 10 27 31 320 32 291 317 356 15 328 317 299 329 292 236 252 285 206 254 310 10 310 323 355 349 348 340
357 357 359 3 8 2 358 20 98 43 259 351 1 351 16 29 11 349 20 47 29 3 6 292 308 55 325 312 2 349 324 297 257 225 257 238 191 284 50 357 354 352 348 348 346
355 354 1 4 356 353 353 35 33 92 324 329 343 347 33 345 4 8 26 43 29 9 9 334 343 4 26 353 333 357 355 331 327 205 234 37 277 268 33 22 8 349 354 352 357
354 354 6 359 349 346 344 52 69 239 282 348 344 319 52 8 20 351 31 55 28 4 332 5 336 10 359 358 331 314 29 291 299 333 302 341 224 317 19 7 4 12 356 1 2
358 358 7 359 353 351 1 50 183 211 313 336 342 35 355 13 5 12 26 73 33 13 66 343 278 333 324 321 192 311 1 317 273 260 261 228 256 194 24 14 5 359 3 359 358
356 13 9 357 354 8 68 117 171 31 335 346 22 55 3 349 21 28 0 2 355 17 346 292 307 303 335 331 18 343 279 328 309 288 277 305 300 12 16 7 356 348 350 348 356
2 26 3 355 24 49 97 199 129 23 14 19 150 30 88 1 311 307 278 151 357 330 335 285 171 302 339 2 322 349 30 347 318 344 313 346 299 40 17 358 340 340 341 341 350
14 33 360 10 41 48 88 190 350 3 13 33 91 81 106 356 323 296 270 234 3 32 329 266 195 291 299 290 160 70 45 43 0 326 293 262 248 28 17 349 347 351 344 351 358
29 355 10 23 79 348 336 76 351 6 12 32 107 95 92 56 354 253 283 271 328 10 326 303 309 340 336 355 352 36 318 332 296 258 232 268 282 340 0 353 358 359 356 3 2
15 21 22 51 71 100 90 330 329 332 287 247 258 140 91 325 200 256 258 309 321 309 297 277 215 173 217 252 281 298 293 297 270 236 274 263 287 302 336 338 337 344 356 2 357
31 67 37 333 13 62 109 144 355 323 259 235 318 194 173 252 281 257 265 287 286 286 289 127 237 235 245 256 272 273 279 274 259 255 250 268 274 294 320 321 334 333 342 358 1
41 69 110 86 355 69 342 244 194 273 185 271 225 247 210 196 215 251 278 274 255 294 183 180 272 327 286 262 264 268 272 272 267 270 264 269 275 293 326 326 333 331 334 350 359
190 182 161 197 129 97 231 221 215 188 260 244 250 259 268 267 275 273 275 270 252 251 250 225 199 75 262 351 347 328 246 234 272 251 285 309 299 295 313 318 319 323 327 345 345
Wind_Speed_850mb
39 37 36 34 33 32 32 34 33 32 31 32 28 28 27 24 23 26 14 11 10 21 41 28 18 35 21 10 12 5 3 8 9 9 11 15 9 4 7 11 18 22 8 12 46
41 42 42 41 39 37 34 33 34 32 29 26 28 29 29 26 28 30 21 16 12 15 19 15 12 16 14 9 9 8 6 14 12 7 9 15 7 15 6 6 13 18 19 16 49
44 44 43 44 43 42 41 38 34 33 34 29 24 26 27 25 11 26 29 25 18 13 14 18 12 14 17 16 15 11 12 8 12 19 17 9 13 8 8 9 15 26 35 30 54
49 50 50 48 48 49 50 49 42 32 27 29 20 18 19 18 9 31 31 25 22 19 14 8 8 7 7 10 14 7 27 23 13 10 11 8 14 13 12 16 8 15 27 43 59
52 53 54 53 56 56 56 54 46 32 27 26 21 14 13 21 25 37 32 25 20 18 15 9 9 7 7 8 12 8 9 27 28 30 26 28 26 16 34 40 31 30 25 49 60
50 52 52 51 56 59 62 58 37 27 31 27 19 21 23 24 34 38 34 30 23 18 15 11 7 12 13 8 4 18 24 31 22 25 21 10 12 5 32 44 41 35 29 49 66
50 50 49 48 51 54 56 44 35 30 33 21 20 42 62 39 38 32 32 30 29 22 18 11 13 9 15 11 19 18 14 15 13 18 13 8 16 17 73 61 58 38 43 48 68
54 55 52 49 50 51 50 39 42 44 35 14 33 33 22 48 41 44 32 23 19 19 18 13 13 10 6 20 16 9 5 8 8 3 9 15 34 13 37 31 44 57 51 52 61
51 53 55 53 53 51 38 49 41 26 59 40 29 30 23 45 60 60 51 39 22 19 13 13 8 6 5 5 7 7 10 12 15 2 6 11 9 9 14 13 35 51 49 57 63
47 49 52 52 50 50 44 6 45 37 8 23 45 14 54 45 47 50 43 33 26 26 7 12 8 6 8 11 7 12 12 11 9 15 15 25 25 27 51 35 32 38 41 43 56
44 45 48 47 47 51 49 11 2 16 62 35 22 18 39 39 32 56 56 17 26 31 12 13 9 10 9 7 11 14 16 25 23 25 27 35 47 31 40 43 32 50 68 74 62
39 40 42 43 37 50 44 43 25 7 10 30 24 41 43 31 22 71 61 29 22 14 22 13 10 7 15 11 7 7 14 14 16 10 13 21 50 34 33 44 51 50 60 75 75
41 39 37 39 26 47 47 35 15 6 3 19 24 41 46 21 25 68 62 26 11 16 13 1 8 19 11 18 23 12 9 7 14 20 15 17 41 19 16 43 46 57 72 77 82
39 38 38 39 22 45 40 24 11 7 8 26 25 28 43 12 9 50 59 14 15 12 13 6 17 16 24 17 17 12 7 6 9 9 6 10 24 7 2 17 10 32 49 61 65
39 36 36 35 27 46 38 17 7 4 9 22 14 19 20 25 29 52 54 18 12 12 8 10 16 23 15 18 22 11 18 12 8 11 4 10 9 4 12 28 24 34 59 58 56
40 36 34 35 34 41 34 9 6 12 5 11 16 23 16 22 20 35 37 18 20 10 12 10 18 8 9 24 9 22 22 30 9 10 16 18 16 25 10 12 30 48 67 68 70
39 34 31 35 41 40 30 3 10 12 11 16 10 14 8 17 16 22 12 39 17 16 16 17 10 10 39 26 18 45 18 9 7 5 10 6 8 24 24 23 23 30 57 67 73
36 28 25 33 32 31 22 10 15 8 5 5 9 9 8 20 10 19 7 10 19 6 4 8 18 14 29 9 18 21 6 5 15 9 22 11 9 5 8 26 40 47 54 70 92
32 20 30 33 32 25 7 12 11 7 5 11 7 10 9 9 9 13 11 5 9 16 6 11 10 20 28 20 2 17 8 24 15 24 19 9 10 11 29 38 58 63 66 77 81
33 12 40 36 26 17 14 8 4 3 7 4 5 7 9 13 12 11 10 5 10 13 7 7 12 13 17 19 17 18 19 11 9 11 9 9 8 5 36 41 38 43 61 70 84
26 7 39 33 15 21 8 8 2 3 6 4 1 4 5 5 4 5 4 5 8 9 19 4 5 12 9 11 26 12 10 11 9 9 9 11 6 24 35 34 34 39 56 60 71
17 8 40 23 17 11 5 8 2 4 5 5 5 3 2 6 3 4 4 5 24 7 7 5 7 8 21 15 8 17 6 9 6 15 14 11 11 26 42 47 52 54 62 54 66
10 14 26 19 7 5 6 1 1 3 4 3 2 4 2 1 5 5 5 7 17 10 3 6 5 8 21 11 8 4 20 14 16 16 8 12 13 43 39 41 59 60 66 67 71
10 7 18 28 18 8 4 4 7 4 4 4 2 3 3 3 6 7 5 11 23 30 23 17 4 13 12 20 21 26 25 26 18 7 22 30 44 41 24 26 40 49 57 66 68
14 7 8 5 11 6 2 6 1 5 3 4 4 7 7 3 6 7 7 13 17 30 9 7 8 8 19 28 32 33 39 36 30 28 26 39 35 32 23 21 38 29 40 50 68
6 2 2 2 2 3 5 5 9 7 4 6 9 9 9 12 15 15 18 7 11 8 6 7 13 5 23 26 25 29 37 33 37 38 39 44 40 1 29 38 39 43 47 43 50
8 12 5 4 5 7 6 8 9 7 11 22 15 6 14 28 36 43 42 40 36 20 17 9 5 2 12 6 10 12 16 11 15 8 3 17 16 11 17 28 33 53 39 46 56
Wind_Direction_850mb
19 16 13 6 358 352 344 336 329 323 319 319 321 320 320 324 333 325 329 316 270 248 256 276 272 281 296 254 222 193 34 244 250 175 253 330 344 277 245 197 183 199 229 213 188
18 14 11 9 4 356 350 344 339 334 322 308 318 319 319 326 349 51 27 358 312 273 273 263 255 245 261 253 205 176 184 233 213 208 255 301 299 317 300 217 215 207 217 222 185
14 14 13 10 7 360 351 347 341 335 333 326 306 318 323 333 52 17 9 356 343 318 284 272 246 245 218 219 203 189 224 215 263 270 276 275 299 295 304 261 228 216 208 207 188
19 16 15 14 10 4 358 350 344 340 343 337 330 336 342 354 69 360 0 358 351 341 333 310 270 238 257 223 220 214 253 250 269 284 305 279 305 299 234 251 312 288 230 212 197
19 16 12 12 8 2 0 353 347 347 356 352 354 10 48 71 18 5 357 343 343 340 345 331 275 256 270 315 319 246 299 274 273 277 281 275 265 257 277 271 278 280 237 219 212
18 13 9 7 6 359 358 355 356 5 18 7 10 50 74 68 16 4 2 1 352 346 357 336 313 313 287 278 265 320 295 287 289 278 269 259 268 170 271 275 272 253 250 224 218
17 13 10 6 5 2 3 7 17 8 359 43 44 91 56 17 13 2 12 12 4 360 360 339 318 313 327 314 326 295 307 304 247 241 237 226 277 220 261 260 265 264 238 229 221
12 11 11 6 7 8 14 19 9 68 54 75 84 78 74 26 34 23 13 18 15 20 7 357 344 304 281 305 321 328 280 331 300 110 284 186 262 284 290 250 252 258 249 234 228
8 7 7 4 3 8 27 47 43 76 56 68 81 76 36 27 28 25 16 14 17 13 41 36 42 36 349 329 332 337 263 272 319 273 308 204 283 278 342 282 258 266 266 256 242
6 4 5 3 1 5 12 26 52 50 50 49 44 63 9 346 17 16 20 11 20 23 26 33 64 72 37 25 301 331 321 319 301 329 343 303 279 282 287 287 269 284 284 271 258
5 3 3 5 1 4 9 47 54 26 51 62 41 49 354 12 24 17 13 23 20 31 13 357 45 40 335 266 249 289 282 287 292 285 285 276 279 275 282 283 275 271 275 275 273
3 4 1 4 4 4 10 54 56 41 357 38 22 20 14 18 11 17 19 30 23 22 353 8 73 12 322 292 274 270 287 289 276 321 300 296 284 272 275 271 266 265 271 277 279
1 2 3 3 359 6 21 40 44 43 26 20 25 13 5 5 34 9 13 359 29 16 8 37 301 339 359 336 329 287 237 278 289 329 261 283 281 267 239 251 263 257 262 270 270
0 358 1 3 7 2 17 18 33 105 69 346 352 9 355 8 59 13 8 2 359 6 340 315 318 3 345 334 357 322 284 272 276 357 277 33 291 113 237 264 301 286 278 277 278
360 359 359 8 9 10 354 9 77 108 56 328 349 347 8 42 353 2 10 27 31 320 32 291 317 356 15 328 317 299 329 292 236 252 285 206 254 310 10 310 323 355 349 348 340
357 357 359 3 8 2 358 20 98 43 259 351 1 351 16 29 11 349 20 47 29 3 6 292 308 55 325 312 2 349 324 297 257 225 257 238 191 284 50 357 354 352 348 348 346
355 354 1 4 356 353 353 35 33 92 324 329 343 347 33 345 4 8 26 43 29 9 9 334 343 4 26 353 333 357 355 331 327 205 234 37 277 268 33 22 8 349 354 352 357
354 354 6 359 349 346 344 52 69 239 282 348 344 319 52 8 20 351 31 55 28 4 332 5 336 10 359 358 331 314 29 291 299 333 302 341 224 317 19 7 4 12 356 1 2
358 358 7 359 353 351 1 50 183 211 313 336 342 35 355 13 5 12 26 73 33 13 66 343 278 333 324 321 192 311 1 317 273 260 261 228 256 194 24 14 5 359 3 359 358
356 13 9 357 354 8 68 117 171 31 335 346 22 55 3 349 21 28 0 2 355 17 346 292 307 303 335 331 18 343 279 328 309 288 277 305 300 12 16 7 356 348 350 348 356
2 26 3 355 24 49 97 199 129 23 14 19 150 30 88 1 311 307 278 151 357 330 335 285 171 302 339 2 322 349 30 347 318 344 313 346 299 40 17 358 340 340 341 341 350
14 33 360 10 41 48 88 190 350 3 13 33 91 81 106 356 323 296 270 234 3 32 329 266 195 291 299 290 160 70 45 43 0 326 293 262 248 28 17 349 347 351 344 351 358
29 355 10 23 79 348 336 76 351 6 12 32 107 95 92 56 354 253 283 271 328 10 326 303 309 340 336 355 352 36 318 332 296 258 232 268 282 340 0 353 358 359 356 3 2
15 21 22 51 71 100 90 330 329 332 287 247 258 140 91 325 200 256 258 309 321 309 297 277 215 173 217 252 281 298 293 297 270 236 274 263 287 302 336 338 337 344 356 2 357
31 67 37 333 13 62 109 144 355 323 259 235 318 194 173 252 281 257 265 287 286 286 289 127 237 235 245 256 272 273 279 274 259 255 250 268 274 294 320 321 334 333 342 358 1
41 69 110 86 355 69 342 244 194 273 185 271 225 247 210 196 215 251 278 274 255 294 183 180 272 327 286 262 264 268 272 272 267 270 264 269 275 293 326 326 333 331 334 350 359
190 182 161 197 129 97 231 221 215 188 260 244 250 259 268 267 275 273 275 270 252 251 250 225 199 75 262 351 347 328 246 234 272 251 285 309 299 295 313 318 319 323 327 345 345